Grand Rapids, MI

8:32 AM EDT on September 20, 2017 (GMT -0400)
Gerald R. Ford International

Weather History for KGRR - June, 2013

Change the Weather History Date:

Friday, June 14, 2013

  Actual Average Record
Temperature  
Mean Temperature 68 °F 68 °F  
Max Temperature 80 °F 79 °F 96 °F (1894)
Min Temperature 55 °F 58 °F 38 °F (1978)
Degree Days  
Heating Degree Days 0 1  
Month to date heating degree days 36 33  
Since 1 June heating degree days 36 33  
Since 1 July heating degree days 6307 6473  
Cooling Degree Days 3 5  
Month to date cooling degree days 33 49  
Year to date cooling degree days 115 96  
Since 1 June cooling degree days 33 49  
Growing Degree Days 18 (Base 50)    
Moisture  
Dew Point 51 °F    
Average Humidity 59    
Maximum Humidity 86    
Minimum Humidity 32    
Precipitation  
Precipitation 0.00 in 0.13 in 2.89 in (1972)
Month to date precipitation 2.56 1.80  
Year to date precipitation 25.25 15.38  
Snow  
Snow 0.00 in 0.00 in 0.00 in (2007)
Month to date snowfall 0.0 0.0  
Since 1 June snowfall 0.0 0.0  
Since 1 July snowfall 66.0 74.9  
Snow Depth 0.00 in    
Sea Level Pressure  
Sea Level Pressure 30.06 in    
Wind  
Wind Speed 5 mph (NNW)    
Max Wind Speed 14 mph    
Max Gust Speed 17 mph    
Visibility 10 miles    
Events      
T = Trace of Precipitation, MM = Missing Value Source: NWS Daily Summary

Daily Weather History Graph

Daily Weather History Graph

Search for Another Location

Airport or City:

Trip Planner

Search our weather history database for the weather conditions in past years. The results will help you decide how hot, cold, wet, or windy it might be!

Date:

Astronomy

Jun. 14, 2013 Rise Set
Actual Time 6:02 AM EDT 9:22 PM EDT
Civil Twilight 5:27 AM EDT 9:57 PM EDT
Nautical Twilight 4:41 AM EDT 10:43 PM EDT
Astronomical Twilight 3:45 AM EDT 11:39 PM EDT
Moon 11:44 AM EDT (6/14) 12:21 AM EDT (6/14)
Length of Visible Light 16h 29m
Length of Day
15h 19m
Waxing Crescent, 30% of the Moon is Illuminated
Jun 14
Waxing Crescent
Jun 16
First Quarter
Jun 23
Full
Jun 30
Last Quarter
Jul 8
New

Hourly Weather History & Observations

Time (EDT) Temp. Dew Point Humidity Pressure Visibility Wind Dir Wind Speed Gust Speed Precip Events Conditions
12:53 AM 61.0 °F 53.1 °F 75% 30.00 in 10.0 mi North 9.2 mph - N/A   Clear
1:53 AM 59.0 °F 53.1 °F 81% 30.00 in 10.0 mi North 9.2 mph - N/A   Clear
2:53 AM 57.0 °F 52.0 °F 83% 30.01 in 10.0 mi North 6.9 mph - N/A   Clear
3:53 AM 57.0 °F 52.0 °F 83% 30.01 in 10.0 mi North 8.1 mph - N/A   Clear
4:53 AM 55.9 °F 51.1 °F 84% 30.02 in 10.0 mi North 5.8 mph - N/A   Clear
5:53 AM 55.0 °F 51.1 °F 86% 30.03 in 10.0 mi NE 6.9 mph - N/A   Clear
6:53 AM 57.0 °F 51.1 °F 81% 30.06 in 10.0 mi North 4.6 mph - N/A   Clear
7:53 AM 60.1 °F 52.0 °F 75% 30.09 in 10.0 mi NNW 4.6 mph - N/A   Clear
8:53 AM 63.0 °F 52.0 °F 67% 30.10 in 10.0 mi NE 6.9 mph - N/A   Clear
9:53 AM 66.0 °F 52.0 °F 60% 30.12 in 10.0 mi Calm Calm - N/A   Clear
10:53 AM 66.9 °F 53.1 °F 61% 30.12 in 10.0 mi Calm Calm - N/A   Clear
11:53 AM 71.1 °F 55.0 °F 57% 30.12 in 10.0 mi West 3.5 mph - N/A   Clear
12:53 PM 73.0 °F 54.0 °F 51% 30.11 in 10.0 mi Variable 3.5 mph - N/A   Clear
1:53 PM 75.0 °F 51.1 °F 43% 30.09 in 10.0 mi NE 6.9 mph - N/A   Partly Cloudy
2:53 PM 77.0 °F 50.0 °F 39% 30.07 in 10.0 mi North 5.8 mph - N/A   Partly Cloudy
3:53 PM 78.1 °F 46.9 °F 33% 30.06 in 10.0 mi Calm Calm - N/A   Scattered Clouds
4:53 PM 79.0 °F 48.0 °F 34% 30.06 in 10.0 mi North 6.9 mph - N/A   Scattered Clouds
5:53 PM 79.0 °F 48.9 °F 35% 30.05 in 10.0 mi Calm Calm - N/A   Scattered Clouds
6:53 PM 77.0 °F 46.0 °F 33% 30.04 in 10.0 mi NW 6.9 mph - N/A   Scattered Clouds
7:53 PM 73.9 °F 53.1 °F 48% 30.04 in 10.0 mi WNW 8.1 mph - N/A   Scattered Clouds
8:53 PM 71.1 °F 52.0 °F 51% 30.04 in 10.0 mi WNW 8.1 mph - N/A   Scattered Clouds
9:53 PM 68.0 °F 51.1 °F 55% 30.05 in 10.0 mi West 5.8 mph - N/A   Scattered Clouds
10:53 PM 66.9 °F 51.1 °F 57% 30.06 in 10.0 mi WNW 4.6 mph - N/A   Partly Cloudy
11:53 PM 61.0 °F 52.0 °F 72% 30.06 in 10.0 mi Calm Calm - N/A   Partly Cloudy